Regional Weather Roundup
Issued by NWS

Home | Current Version | Previous Version | Graphics & Text | Print | Product List | Glossary On
Versions: 1 2 3 4 5 6 7 8 9 10 11 12 13 14 15 16 17 18 19 20 21 22 23 24 25 26 27 28 29 30 31 32 33 34 35 36 37 38 39 40 41 42 43 44 45 46 47 48 49 50
000
ASUS43 KFSD 251702
RWRSD

WEATHER ROUNDUP FOR SOUTH DAKOTA
NATIONAL WEATHER SERVICE SIOUX FALLS SD
1200 PM CDT SAT MAR 25 2017

NOTE: "FAIR" INDICATES FEW OR NO CLOUDS BELOW 12,000 FEET WITH NO
SIGNIFICANT WEATHER AND/OR OBSTRUCTIONS TO VISIBILITY.


SDZ001>005-009-010-012>017-251800-
NORTHWEST AND NORTH CENTRAL SOUTH DAKOTA

CITY           SKY/WX    TMP DP  RH WIND       PRES   REMARKS
BUFFALO          N/A     50  33  52 CALM      29.86S
FAITH            N/A     45  34  65 SE22      29.95S
MOBRIDGE       CLOUDY    36  31  82 S16       30.04F
$$

SDZ012>016-024>037-041>051-057-063-072>074-251800-
SOUTHWEST AND SOUTH CENTRAL SOUTH DAKOTA

CITY           SKY/WX    TMP DP  RH WIND       PRES   REMARKS
RAPID CTY ARPT CLOUDY    56  33  42 SE13      29.91F
PIERRE         CLOUDY    37  33  85 SE9       30.06F
CUSTER         CLOUDY    51  26  37 W7        29.95S
ELLSWORTH AFB  CLOUDY    56  33  41 S14       29.90F
PHILIP         MOSUNNY   56  29  35 SE13G23   29.98F
PINE RIDGE     SUNNY     60  31  33 S21       29.95F
SPEARFISH      FAIR      55  32  41 NW7       29.93R
WINNER         FAIR      44  35  70 VRB7      30.04F
$$

SDZ004>011-016>023-039-040-251800-
NORTHEAST SOUTH DAKOTA

CITY           SKY/WX    TMP DP  RH WIND       PRES   REMARKS
ABERDEEN       CLOUDY    36  28  73 S8        30.13F
WATERTOWN      CLOUDY    34  31  88 SE9       30.10F WCI  27
BROOKINGS      CLOUDY    35  32  88 E8        30.09F WCI  29
SISSETON         N/A     35  32  88 S14       30.14F WCI  26
$$

SDZ017-020-022-023-036>040-048>070-251800-
SOUTHEAST SOUTH DAKOTA

CITY           SKY/WX    TMP DP  RH WIND       PRES   REMARKS
SIOUX FALLS    CLOUDY    41  36  82 NE16      30.08F
HURON          CLOUDY    36  32  85 E5        30.11F
CHAMBERLAIN    CLOUDY    39  34  82 SE8       30.07F
MITCHELL       CLOUDY    36  34  92 E7        30.11F
YANKTON        CLOUDY    37  34  87 NE10      30.08F
$$

ABBREVIATIONS USED IN REMARKS
   TC - TEMPERATURE IN CELSIUS
  WCI - WIND CHILL INDEX
   HX - HEAT INDEX
  VSB - VISIBILITY





USA.gov is the U.S. government's official web portal to all federal, state and local government web resources and services.